Location: Black River Observatory
(43.1000°N, 82.6200°W)
Time: 15:08:20
(UTC-05:00)

Daily predictions for brighter satellites

Satellite Brightness Start Highest point End
(mag) Time Altitude Azimuth Time Altitude Azimuth Time Altitude Azimuth
BREEZE-M DEB (TANK) 3.9 17:50:23 10° WNW 17:52:53 43° SSW 17:58:40 10° SE
Tsikada Rocket 4.1 17:47:27 10° S 17:53:45 71° E 18:00:09 10° NNE
Cosmos 2219 Rocket 2.8 17:52:08 10° S 17:57:17 38° ESE 18:02:26 10° NE
Cosmos 2322 Rocket 4.1 17:53:29 10° WSW 17:58:06 25° NW 18:02:44 10° N
Cosmos 1743 Rocket 4.0 17:54:11 10° SSE 17:58:26 44° E 18:02:42 10° NNE
Cosmos 2278 Rocket 2.9 17:56:18 10° N 18:01:23 32° NE 18:06:26 10° ESE
Cosmos 1328 Rocket 3.7 17:58:29 10° N 18:02:53 57° E 18:07:15 10° SSE
Cosmos 540 Rocket 4.5 18:03:26 10° SSE 18:07:39 26° E 18:11:54 10° NE
USA 215 3.4 18:02:47 10° ESE 18:09:09 57° NNE 18:15:33 10° NW
Cosmos 1908 3.3 18:05:23 10° N 18:09:17 85° WSW 18:13:10 10° S
Cosmos 1515 Rocket 3.8 18:05:25 10° N 18:09:47 50° ENE 18:14:06 10° SSE
Cosmos 2151 4.0 18:06:44 10° SE 18:10:13 26° E 18:13:43 10° NNE
Cosmos 332 Rocket 3.9 18:06:15 10° S 18:10:56 55° ESE 18:15:42 10° NNE
MONITOR-E 4.3 18:09:16 10° SSE 18:12:22 53° ENE 18:15:29 10° N
Cosmos 1844 3.7 18:06:54 10° NNW 18:12:38 64° ENE 18:18:23 10° SE
SKYMED 2 4.1 18:09:16 10° NNE 18:13:22 40° E 18:17:26 10° SSE
SL-14 R/B 4.2 18:13:29 10° SSE 18:16:50 28° E 18:20:15 10° NNE
Thor Agena Rocket 3.6 18:13:06 10° NNE 18:18:24 88° WNW 18:23:35 10° SSW
Cosmos 1674 2.9 18:14:46 10° SSW 18:18:35 76° W 18:22:26 10° N
SPOT 3 Rocket 3.9 18:13:52 10° S 18:18:59 70° WSW 18:24:10 10° NNW
MSX 3.9 18:13:35 10° SSE 18:19:18 84° WSW 18:25:04 10° NNW
Cosmos 1151 Rocket 3.3 18:15:21 10° N 18:19:26 42° ENE 18:23:29 10° SSE
Cosmos 1634 Rocket 4.0 18:13:31 10° N 18:19:41 62° E 18:25:46 10° SSE
Cosmos 1484 Rocket 2.7 18:18:29 10° SSE 18:22:23 71° ENE 18:26:21 10° N
Cosmos 1125 Rocket 3.6 18:18:22 10° N 18:23:27 51° ENE 18:28:29 10° SE
COSMOS 2428 2.9 18:18:32 10° SSW 18:24:15 75° WNW 18:29:59 10° NNE
Cosmos 1500 Rocket 3.5 18:21:07 10° S 18:25:23 62° E 18:29:42 10° NNE
Molniya-1 4.0 18:22:41 10° SW 18:25:26 83° NW 18:30:19 10° NE
Cosmos 2237 Rocket 2.6 18:22:40 10° S 18:27:52 40° ESE 18:33:01 10° NE
BREEZE-M DEB (TANK) 3.9 18:21:00 10° NW 18:29:33 53° SW 18:32:44 10° SSE
ALOS 3.5 18:28:54 10° ESE 18:32:14 20° ENE 18:35:35 10° NNE
SL-16 R/B 3.5 18:28:56 10° SE 18:32:47 19° E 18:34:21 17° ENE
Cosmos 44 3.9 18:28:12 10° S 18:33:08 41° ESE 18:36:41 17° NE
Cosmos 1300 2.7 18:30:11 10° N 18:33:58 54° E 18:37:43 10° SSE
IDEFIX/ARIANE 42P 4.1 18:30:22 10° SSW 18:35:13 39° W 18:40:08 10° NNW
Cosmos 1726 2.1 18:32:20 10° N 18:36:05 60° E 18:39:48 10° SSE
Cosmos 2297 4.4 18:35:17 10° N 18:40:22 32° NE 18:44:55 12° ESE
Cosmos 841 Rocket 3.8 18:35:16 10° SSW 18:40:31 69° WNW 18:45:48 10° NNE
Cosmos 371 Rocket 3.2 18:36:32 10° SSW 18:41:20 80° ESE 18:46:10 10° NNE
Lacrosse 5 rocket 1.8 18:38:34 10° NNW 18:42:04 35° NE 18:43:37 25° E
BREEZE-M DEB (TANK) 3.0 18:40:24 10° SSW 18:42:34 28° SE 18:43:04 25° ESE
NOSS 0 Rocket 3.9 18:36:31 10° SSW 18:42:39 65° ESE 18:48:47 10° NNE
CZ-4 R/B 4.1 18:40:37 10° SSW 18:43:41 22° W 18:46:45 10° NW
OTV 4 2.3 18:45:13 10° WSW 18:47:44 25° S 18:49:25 15° SE
CENTAUR R/B 3.2 18:45:34 10° WSW 18:51:35 53° NW 18:58:26 10° NNE
Meteor 1-11 4.2 18:48:53 10° S 18:54:28 64° E 19:00:09 10° NNE
Resurs 01 Rocket 2.4 18:54:23 28° ENE 18:54:36 29° ENE 18:58:26 10° N
Cosmos 2084 3.1 18:52:19 10° SW 18:56:12 87° NW 18:58:06 28° NE
Meteor 1-28 Rocket 3.1 18:55:10 10° NNE 18:58:54 89° W 19:02:36 10° SSW
Cosmos 1844 Rocket 4.0 18:53:43 10° NW 18:59:02 42° WSW 19:04:18 10° S
Cosmos 44 Rocket 3.5 18:55:39 10° SW 19:00:47 77° NW 19:04:26 19° NNE
COSMO-SKYMED 1 3.1 18:57:08 10° N 19:01:25 61° WNW 19:05:42 10° SSW
Cosmos 1328 4.3 18:57:34 10° SSW 19:01:27 60° W 19:05:23 10° N
CZ-3A R/B 2.8 18:57:02 10° NW 19:02:01 57° NE 19:04:51 25° ESE
Lacrosse 5 3.7 18:58:28 10° WNW 19:02:09 20° NNW 19:04:47 14° NNE
Aureole 2 Rocket 2.8 19:00:31 10° S 19:04:02 50° ESE 19:04:38 45° ENE
Cosmos 1707 Rocket 3.8 19:00:57 10° N 19:05:04 41° ENE 19:09:10 10° SSE
FengYun 1-2 T 4.3 19:05:24 10° SE 19:10:46 51° ENE 19:16:06 10° N
Cosmos 1461 4.3 19:08:04 10° S 19:10:31 23° SE 19:10:31 23° SE
Cosmos 2279 Rocket 3.9 19:05:47 10° N 19:12:02 89° W 19:18:16 10° S
SJ-6B 2.8 19:09:33 10° SSE 19:13:35 85° ENE 19:17:44 10° NNW
Cosmos 1980 3.8 19:09:26 10° SSW 19:15:07 78° WNW 19:19:45 16° NNE
Cosmos 1666 Rocket 4.2 19:12:21 10° SSE 19:15:24 36° SE 19:15:24 36° SE
Cosmos 2058 3.2 19:17:14 10° SSW 19:21:19 65° W 19:24:55 13° N
FENGYUN 3A 3.6 19:20:07 10° SSE 19:25:23 62° ENE 19:30:42 10° N
Cosmos 304 Rocket 3.6 19:22:33 10° S 19:27:19 68° ESE 19:28:09 56° NE
Cosmos 2333 Rocket 2.9 19:22:10 10° SW 19:27:40 53° WNW 19:32:20 15° NNE
Cosmos 1703 3.1 19:25:21 10° S 19:29:15 88° E 19:29:16 88° ENE
Nadezhda 4 Rocket 3.9 19:27:22 10° S 19:33:33 68° E 19:39:50 10° NNE
ATLAS 5 CENTAUR R/B 4.3 19:34:47 10° N 19:36:14 12° NNE 19:36:14 12° NNE
Cosmos 2219 Rocket 3.6 19:36:10 10° WSW 19:41:15 34° NW 19:46:00 12° N
Cosmos 1340 Rocket 3.8 19:40:20 10° SSW 19:44:08 45° WNW 19:45:22 33° NNW
BREEZE-M DEB (TANK) 4.4 19:43:17 10° W 19:43:55 16° W 19:43:55 16° W
Cosmos 2278 Rocket 3.5 19:40:16 10° NW 19:45:32 40° WSW 19:50:47 10° S
Cosmos 1092 Rocket 3.9 19:44:36 10° S 19:50:51 67° E 19:51:46 59° NE
USA 215 4.1 19:45:57 10° SSE 19:52:14 48° SW 19:58:33 10° WNW
Cosmos 1626 4.1 19:50:59 10° SSW 19:52:36 24° SSW 19:52:36 24° SSW
Cosmos 1805 Rocket 4.5 19:51:13 10° SSW 19:55:30 48° WNW 19:57:08 32° NNW
BREEZE-M DEB (TANK) 4.5 19:49:12 10° W 20:05:48 54° N 20:06:31 51° NNE
ALOS 3.2 20:04:51 10° S 20:09:20 47° W 20:13:51 10° NNW
CZ-4C R/B 4.5 20:07:08 10° NNW 20:09:59 16° N 20:09:59 16° N
Cosmos 2237 Rocket 3.7 20:07:00 10° WSW 20:12:00 32° NW 20:14:53 21° N
Spot 2 Rocket 4.3 20:09:54 10° S 20:14:46 48° W 20:19:40 10° NNW
SL-16 R/B 2.5 20:10:44 10° SW 20:16:19 63° WNW 20:16:19 63° WNW
Cosmos 2369 Rocket 4.4 20:12:21 10° N 20:13:01 13° N 20:13:01 13° N
Lacrosse 5 rocket 3.7 20:17:47 10° WNW 20:19:24 21° W 20:19:24 21° W
Resurs 01 Rocket 3.6 20:31:55 26° WNW 20:31:55 26° WNW 20:34:53 10° NW
USA 229 DEB 4.5 20:27:32 10° SSW 20:31:47 41° SSW 20:31:47 41° SSW
USA 229 4.5 20:27:40 10° SSW 20:31:50 40° SSW 20:31:50 40° SSW
